星链-5890 (STARLINK-5890 )

导读 | 豆包AI

STARLINK-5890是美国太空探索技术公司(SpaceX)星链星座的成员,于2023年7月7日发射入轨,属于星链低轨互联网星座建设的批次卫星之一。星链星座旨在为全球提供高速低延迟卫星互联网服务,该卫星参与构建全球覆盖的卫星通信网络,服务包括偏远地区互联网接入、海事航空通信等场景。

基本信息
目录编号:
57265
目录名称:
STARLINK-5890
国际标识:
2023-094AZ
轨道中心:
EARTH
卫星名称:
星链-5890
卫星全名:
星链-5890 (STARLINK-5890 )
卫星状态:
已陨落 最后检测时间 2026-02-18
发射日期:
2023-07-07 UTC
国别 :
美国 (US)
星等 :
--
轨道信息
数据来源 国际轨道数据
星历时间: 2026-02-18T18:46:51+0800
轨道信息已过期70天
半长轴: 6540.729km
偏心率: 0.0007436
轨道倾角: 42.987°
近地点辐角 200.800°
升交点赤经 82.019°
平近点角 159.259°
近地点: 157.728km
远地点: 167.456km
周期: 87.740分钟
每日圈数: 16.412078
详细信息
固有亮度:
5
最大亮度:
2.4
卫星平台:
Starlink v1.5
覆盖范围:
全球
运营商:
太空探索技术公司
运营商所在国:
美国
制造商(研发单位):
太空探索技术公司
制造商所在国:
美国
使用方式:
暂无
卫星简介
星链(Starlink)计划是由太空探索技术公司(SpaceX)提出的一个巨型低轨卫星互联网星座项目,计划在2019年至2024年间在太空搭建由约1.2万颗卫星组成的“星链”网络,其中1584颗将部署在地球上空550千米处的近地轨道,并从2020年开始工作。该卫星仍在工作。